When you browse on this site, cookies collect data to enhance your experience and personalize the content and advertising you see.
Visit our Privacy Policy to learn more. By continuing to use the site, you agree to this use of cookies and data.
  • în România
  • Lista ţărilor
  • Pe 7 zile
  • Temperatura apei
  • Hartă satelitară
  • Meteo pe hartă
  • Widget-uri
  • user-avatar
    Intrare

    Meteo pe oră la Carmarthen

    Astăzi, 20 Ianuarie, Duminică

    Timp Temperatura Precipitaţii Vânt Presiune Umiditate
    00:00 +4°C° 0 mm 2 m/s 756 mmHg 95%
    01:00 +4°C° 0 mm 1 m/s 756 mmHg 95%
    02:00 +4°C° 0 mm 1 m/s 756 mmHg 95%
    03:00 +4°C° 0 mm 1 m/s 756 mmHg 95%
    04:00 +4°C° 0 mm 1 m/s 757 mmHg 95%
    05:00 +4°C° 0 mm 1 m/s 757 mmHg 95%
    06:00 +4°C° 0 mm 1 m/s 758 mmHg 95%
    07:00 +4°C° 0.3 mm 2 m/s 759 mmHg 95%
    08:00 +3°C° 0.3 mm 3 m/s 759 mmHg 94%
    09:00 +4°C° 0.3 mm 4 m/s 760 mmHg 94%
    10:00 +4°C° 0.2 mm 6 m/s 761 mmHg 89%
    11:00 +4°C° 0.2 mm 8 m/s 762 mmHg 84%
    12:00 +5°C° 0.2 mm 10 m/s 762 mmHg 79%
    13:00 +3°C° 0 mm 10 m/s 763 mmHg 77%
    14:00 +3°C° 0 mm 9 m/s 763 mmHg 75%
    15:00 +4°C° 0 mm 8 m/s 764 mmHg 74%
    16:00 +3°C° 0 mm 7 m/s 765 mmHg 75%
    17:00 +2°C° 0 mm 7 m/s 765 mmHg 76%
    18:00 +1°C° 0 mm 6 m/s 766 mmHg 77%
    19:00 +1°C° 0 mm 6 m/s 766 mmHg 79%
    20:00 +1°C° 0 mm 5 m/s 766 mmHg 80%
    21:00 0°C° 0 mm 4 m/s 767 mmHg 81%
    22:00 +1°C° 0 mm 3 m/s 767 mmHg 84%
    23:00 +1°C° 0 mm 3 m/s 767 mmHg 87%

    Mâine, 21 Ianuarie, Luni

    Timp Temperatura Precipitaţii Vânt Presiune Umiditate
    00:00 0°C° 0 mm 3 m/s 767 mmHg 90%
    01:00 0°C° 0 mm 3 m/s 767 mmHg 90%
    02:00 0°C° 0 mm 3 m/s 766 mmHg 90%
    03:00 0°C° 0 mm 3 m/s 766 mmHg 90%
    04:00 0°C° 0 mm 3 m/s 765 mmHg 89%
    05:00 0°C° 0 mm 3 m/s 765 mmHg 88%
    06:00 -1°C° 0 mm 4 m/s 764 mmHg 87%
    07:00 -1°C° 0 mm 4 m/s 764 mmHg 85%
    08:00 -1°C° 0 mm 5 m/s 763 mmHg 83%
    09:00 0°C° 0 mm 5 m/s 762 mmHg 82%
    10:00 +1°C° 0 mm 6 m/s 761 mmHg 78%
    11:00 0°C° 0 mm 8 m/s 760 mmHg 74%
    12:00 +1°C° 0 mm 9 m/s 759 mmHg 70%
    13:00 +1°C° 0.2 mm 9 m/s 757 mmHg 73%
    14:00 +1°C° 0.2 mm 10 m/s 755 mmHg 77%
    15:00 +1°C° 0.2 mm 11 m/s 753 mmHg 81%
    16:00 +1°C° 1.1 mm 11 m/s 752 mmHg 83%
    17:00 +1°C° 1.1 mm 11 m/s 751 mmHg 86%
    18:00 +1°C° 1.1 mm 11 m/s 750 mmHg 89%
    19:00 0°C° 0.2 mm 10 m/s 749 mmHg 86%
    20:00 -1°C° 0.2 mm 9 m/s 749 mmHg 84%
    21:00 -3°C° 0.2 mm 9 m/s 748 mmHg 81%
    22:00 -3°C° 0 mm 9 m/s 748 mmHg 81%
    23:00 -3°C° 0 mm 9 m/s 748 mmHg 80%

    Poimâine, 22 Ianuarie, Marţi

    Timp Temperatura Precipitaţii Vânt Presiune Umiditate
    00:00 -3°C° 0 mm 9 m/s 748 mmHg 80%
    01:00 -3°C° 0 mm 9 m/s 747 mmHg 80%
    02:00 -3°C° 0 mm 9 m/s 747 mmHg 81%
    03:00 -2°C° 0 mm 8 m/s 747 mmHg 81%
    04:00 -2°C° 0 mm 8 m/s 747 mmHg 80%
    05:00 -3°C° 0 mm 9 m/s 747 mmHg 79%
    06:00 -3°C° 0 mm 9 m/s 746 mmHg 79%
    07:00 -3°C° 0.1 mm 9 m/s 747 mmHg 77%
    08:00 -3°C° 0.1 mm 9 m/s 747 mmHg 75%
    09:00 -3°C° 0.1 mm 9 m/s 748 mmHg 74%
    10:00 -1°C° 0 mm 9 m/s 748 mmHg 70%
    11:00 -1°C° 0 mm 9 m/s 748 mmHg 67%
    12:00 0°C° 0 mm 9 m/s 749 mmHg 63%
    13:00 0°C° 0.1 mm 8 m/s 749 mmHg 63%
    14:00 0°C° 0.1 mm 8 m/s 749 mmHg 62%
    15:00 0°C° 0.1 mm 8 m/s 749 mmHg 62%
    16:00 -1°C° 0.1 mm 8 m/s 749 mmHg 65%
    17:00 -1°C° 0.1 mm 7 m/s 749 mmHg 68%
    18:00 -2°C° 0.1 mm 7 m/s 749 mmHg 70%
    19:00 -2°C° 0.1 mm 7 m/s 750 mmHg 72%
    20:00 -2°C° 0.1 mm 7 m/s 750 mmHg 73%
    21:00 -2°C° 0.1 mm 7 m/s 750 mmHg 75%
    22:00 -2°C° 0.1 mm 7 m/s 750 mmHg 76%
    23:00 -2°C° 0.1 mm 7 m/s 750 mmHg 77%

    23 Ianuarie, Miercuri

    Timp Temperatura Precipitaţii Vânt Presiune Umiditate
    00:00 -2°C° 0.1 mm 6 m/s 750 mmHg 78%
    01:00 -2°C° 0.1 mm 6 m/s 751 mmHg 78%
    02:00 -2°C° 0.1 mm 6 m/s 751 mmHg 78%
    03:00 -2°C° 0.1 mm 6 m/s 751 mmHg 78%
    04:00 -2°C° 0 mm 6 m/s 751 mmHg 80%
    05:00 -1°C° 0 mm 5 m/s 751 mmHg 83%
    06:00 -2°C° 0 mm 5 m/s 752 mmHg 85%
    07:00 -2°C° 0 mm 5 m/s 752 mmHg 85%
    08:00 -1°C° 0 mm 5 m/s 752 mmHg 84%
    09:00 -1°C° 0 mm 4 m/s 753 mmHg 84%
    10:00 0°C° 0 mm 5 m/s 753 mmHg 81%
    11:00 +1°C° 0 mm 5 m/s 753 mmHg 77%
    12:00 +2°C° 0 mm 5 m/s 753 mmHg 74%
    13:00 +2°C° 0 mm 5 m/s 753 mmHg 75%
    14:00 +3°C° 0 mm 5 m/s 753 mmHg 76%
    15:00 +3°C° 0 mm 5 m/s 753 mmHg 77%
    16:00 +3°C° 0.1 mm 4 m/s 754 mmHg 82%
    17:00 +3°C° 0.1 mm 4 m/s 754 mmHg 87%
    18:00 +1°C° 0.1 mm 4 m/s 754 mmHg 91%
    19:00 +3°C° 0 mm 4 m/s 754 mmHg 92%
    20:00 +3°C° 0 mm 3 m/s 754 mmHg 93%
    21:00 +3°C° 0 mm 3 m/s 755 mmHg 94%
    22:00 +3°C° 0 mm 3 m/s 755 mmHg 94%
    23:00 +3°C° 0 mm 3 m/s 755 mmHg 94%

    24 Ianuarie, Joi

    Timp Temperatura Precipitaţii Vânt Presiune Umiditate
    00:00 +3°C° 0 mm 3 m/s 755 mmHg 94%
    01:00 +4°C° 0.2 mm 2 m/s 754 mmHg 95%
    02:00 +4°C° 0.2 mm 2 m/s 754 mmHg 96%
    03:00 +5°C° 0.2 mm 1 m/s 754 mmHg 97%
    04:00 +5°C° 0.7 mm 1 m/s 754 mmHg 97%
    05:00 +5°C° 0.7 mm 1 m/s 754 mmHg 97%
    06:00 +6°C° 0.7 mm 1 m/s 754 mmHg 97%
    07:00 +6°C° 0.6 mm 1 m/s 755 mmHg 97%
    08:00 +6°C° 0.6 mm 1 m/s 755 mmHg 97%
    09:00 +5°C° 0.6 mm 0 m/s 755 mmHg 97%
    10:00 +7°C° 0.1 mm 1 m/s 756 mmHg 97%
    11:00 +7°C° 0.1 mm 1 m/s 756 mmHg 97%
    12:00 +7°C° 0.1 mm 1 m/s 756 mmHg 97%
    13:00 +8°C° 0.3 mm 1 m/s 756 mmHg 97%
    14:00 +7°C° 0.3 mm 2 m/s 756 mmHg 97%
    15:00 +8°C° 0.3 mm 2 m/s 756 mmHg 97%
    16:00 +8°C° 0.4 mm 3 m/s 757 mmHg 97%
    17:00 +9°C° 0.4 mm 3 m/s 757 mmHg 96%
    18:00 +8°C° 0.4 mm 4 m/s 758 mmHg 96%
    19:00 +8°C° 0.1 mm 4 m/s 758 mmHg 95%
    20:00 +8°C° 0.1 mm 4 m/s 759 mmHg 95%
    21:00 +8°C° 0.1 mm 5 m/s 759 mmHg 95%
    22:00 +7°C° 0 mm 5 m/s 759 mmHg 96%
    23:00 +7°C° 0 mm 4 m/s 759 mmHg 96%

    25 Ianuarie, Vineri

    Timp Temperatura Precipitaţii Vânt Presiune Umiditate
    00:00 +7°C° 0 mm 4 m/s 760 mmHg 97%
    01:00 +7°C° 0 mm 4 m/s 760 mmHg 96%
    02:00 +7°C° 0 mm 4 m/s 760 mmHg 96%
    03:00 +7°C° 0 mm 4 m/s 760 mmHg 96%
    04:00 +6°C° 0 mm 5 m/s 760 mmHg 95%
    05:00 +6°C° 0 mm 5 m/s 760 mmHg 95%
    06:00 +5°C° 0 mm 5 m/s 760 mmHg 95%
    07:00 +6°C° 0 mm 5 m/s 760 mmHg 94%
    08:00 +6°C° 0 mm 5 m/s 760 mmHg 94%
    09:00 +5°C° 0 mm 6 m/s 760 mmHg 93%
    10:00 +7°C° 0 mm 6 m/s 760 mmHg 91%
    11:00 +7°C° 0 mm 6 m/s 760 mmHg 89%
    12:00 +8°C° 0 mm 6 m/s 760 mmHg 86%
    13:00 +8°C° 0.1 mm 6 m/s 760 mmHg 87%
    14:00 +8°C° 0.1 mm 6 m/s 759 mmHg 88%
    15:00 +8°C° 0.1 mm 6 m/s 759 mmHg 89%
    16:00 +8°C° 0.1 mm 6 m/s 758 mmHg 90%
    17:00 +8°C° 0.1 mm 7 m/s 758 mmHg 91%
    18:00 +9°C° 0.1 mm 7 m/s 758 mmHg 92%
    19:00 +8°C° 0.1 mm 6 m/s 758 mmHg 92%
    20:00 +8°C° 0.1 mm 5 m/s 758 mmHg 93%
    21:00 +8°C° 0.1 mm 5 m/s 758 mmHg 94%
    22:00 +8°C° 0.2 mm 4 m/s 758 mmHg 95%
    23:00 +8°C° 0.2 mm 3 m/s 757 mmHg 96%
    Arată mai mult